Arroyo Seco, NM

9:12 AM MDT on October 01, 2016 (GMT -0600)
Taos Municipal

Weather History for KSKX - April, 2013

Change the Weather History Date:

Tuesday, April 16, 2013

  Actual Average Record
Temperature  
Mean Temperature 56 °F -  
Max Temperature 69 °F 58 °F 71 °F (2001)
Min Temperature 42 °F 25 °F 8 °F (1999)
Degree Days  
Heating Degree Days 10    
Growing Degree Days 6 (Base 50)    
Moisture  
Dew Point 15 °F    
Average Humidity 20    
Maximum Humidity 32    
Minimum Humidity 11    
Precipitation  
Precipitation 0.00 in - - ()
Sea Level Pressure  
Sea Level Pressure 29.82 in    
Wind  
Wind Speed 17 mph (SW)    
Max Wind Speed 37 mph    
Max Gust Speed 46 mph    
Visibility 10 miles    
Events      
Averages and records for this station are not official NWS values.
T = Trace of Precipitation, MM = Missing Value Source: NWS Daily Summary

Daily Weather History Graph

Daily Weather History Graph

Search for Another Location

Airport or City:

Trip Planner

Search our weather history database for the weather conditions in past years. The results will help you decide how hot, cold, wet, or windy it might be!

Date:

Astronomy

Apr. 16, 2013 Rise Set
Actual Time 6:27 AM MDT 7:37 PM MDT
Civil Twilight 6:00 AM MDT 8:04 PM MDT
Nautical Twilight 5:28 AM MDT 8:36 PM MDT
Astronomical Twilight 4:55 AM MDT 9:09 PM MDT
Moon 10:52 AM MDT (4/16) 12:32 AM MDT (4/16)
Length of Visible Light 14h 04m
Length of Day
13h 10m
Waxing Crescent, 34% of the Moon is Illuminated
Apr 16
Waxing Crescent
Apr 18
First Quarter
Apr 25
Full
May 2
Last Quarter
May 9
New

Hourly Weather History & Observations

Time (MDT) Temp. Windchill Dew Point Humidity Pressure Visibility Wind Dir Wind Speed Gust Speed Precip Events Conditions
12:15 AM 48.2 °F - 15.8 °F 27% 29.83 in 10.0 mi West 15.0 mph - N/A   Clear
12:35 AM 51.8 °F - 14.0 °F 22% 29.82 in 10.0 mi West 17.3 mph 25.3 mph N/A   Clear
12:55 AM 50.0 °F - 14.0 °F 24% 29.83 in 10.0 mi West 10.4 mph - N/A   Clear
1:15 AM 48.2 °F - 12.2 °F 24% 29.84 in 10.0 mi WSW 8.1 mph - N/A   Clear
1:35 AM 44.6 °F 42.2 °F 12.2 °F 27% 29.85 in 10.0 mi SE 4.6 mph - N/A   Clear
1:55 AM 44.6 °F 40.7 °F 12.2 °F 27% 29.85 in 10.0 mi SE 6.9 mph - N/A   Clear
2:15 AM 42.8 °F 38.0 °F 10.4 °F 27% 29.84 in 10.0 mi East 8.1 mph - N/A   Clear
2:35 AM 44.6 °F 42.2 °F 14.0 °F 29% 29.84 in 10.0 mi South 4.6 mph - N/A   Clear
2:55 AM 46.4 °F 41.5 °F 15.8 °F 29% 29.84 in 10.0 mi SSW 10.4 mph - N/A   Clear
3:15 AM 46.4 °F 41.1 °F 12.2 °F 25% 29.84 in 10.0 mi SSW 11.5 mph - N/A   Clear
3:35 AM 48.2 °F - 15.8 °F 27% 29.84 in 10.0 mi SW 12.7 mph - N/A   Clear
3:55 AM 48.2 °F - 15.8 °F 27% 29.84 in 10.0 mi SW 19.6 mph - N/A   Clear
4:15 AM 48.2 °F - 14.0 °F 25% 29.85 in 10.0 mi SW 11.5 mph - N/A   Clear
4:35 AM 48.2 °F - 14.0 °F 25% 29.85 in 10.0 mi SW 11.5 mph - N/A   Clear
4:55 AM 44.6 °F 39.7 °F 12.2 °F 27% 29.85 in 10.0 mi SW 9.2 mph - N/A   Clear
5:15 AM 42.8 °F 37.5 °F 12.2 °F 29% 29.86 in 10.0 mi SSW 9.2 mph - N/A   Clear
5:35 AM 44.6 °F 41.4 °F 15.8 °F 31% 29.86 in 10.0 mi SW 5.8 mph - N/A   Clear
6:15 AM 46.4 °F 40.4 °F 17.6 °F 32% 29.87 in 10.0 mi SSW 13.8 mph - N/A   Clear
6:35 AM 46.4 °F 41.5 °F 15.8 °F 29% 29.88 in 10.0 mi SSW 10.4 mph - N/A   Clear
6:55 AM 48.2 °F - 17.6 °F 30% 29.88 in 10.0 mi SW 11.5 mph - N/A   Clear
7:15 AM 50.0 °F - 19.4 °F 30% 29.89 in 10.0 mi SW 16.1 mph 21.9 mph N/A   Clear
7:35 AM 51.8 °F - 19.4 °F 28% 29.89 in 10.0 mi SSW 19.6 mph 24.2 mph N/A   Clear
7:55 AM 53.6 °F - 19.4 °F 26% 29.90 in 10.0 mi SW 17.3 mph 25.3 mph N/A   Clear
8:15 AM 53.6 °F - 21.2 °F 28% 29.90 in 10.0 mi SW 18.4 mph 28.8 mph N/A   Clear
8:35 AM 53.6 °F - 21.2 °F 28% 29.90 in 10.0 mi SW 23.0 mph 29.9 mph N/A   Clear
8:55 AM 55.4 °F - 21.2 °F 26% 29.89 in 10.0 mi SW 23.0 mph 27.6 mph N/A   Clear
9:15 AM 57.2 °F - 21.2 °F 25% 29.88 in 10.0 mi SSW 26.5 mph 32.2 mph N/A   Clear
9:35 AM 57.2 °F - 19.4 °F 23% 29.88 in 10.0 mi SW 21.9 mph 28.8 mph N/A   Clear
9:55 AM 59.0 °F - 19.4 °F 22% 29.88 in 10.0 mi SW 21.9 mph 31.1 mph N/A   Clear
10:15 AM 60.8 °F - 19.4 °F 20% 29.88 in 10.0 mi South 17.3 mph 25.3 mph N/A   Clear
10:35 AM 60.8 °F - 19.4 °F 20% 29.87 in 10.0 mi SSW 20.7 mph 25.3 mph N/A   Clear
10:55 AM 60.8 °F - 19.4 °F 20% 29.86 in 10.0 mi SSW 28.8 mph 35.7 mph N/A   Clear
11:15 AM 62.6 °F - 19.4 °F 19% 29.86 in 10.0 mi SW 28.8 mph 35.7 mph N/A   Clear
11:35 AM 62.6 °F - 19.4 °F 19% 29.85 in 10.0 mi SSW 25.3 mph 33.4 mph N/A   Clear
11:55 AM 62.6 °F - 19.4 °F 19% 29.85 in 10.0 mi SSW 20.7 mph 31.1 mph N/A   Clear
12:15 PM 64.4 °F - 19.4 °F 18% 29.83 in 10.0 mi SW 26.5 mph 34.5 mph N/A   Clear
12:35 PM 64.4 °F - 19.4 °F 18% 29.82 in 10.0 mi SW 27.6 mph 34.5 mph N/A   Clear
12:55 PM 64.4 °F - 19.4 °F 18% 29.82 in 10.0 mi SSW 32.2 mph 36.8 mph N/A   Clear
1:15 PM 66.2 °F - 21.2 °F 18% 29.81 in 10.0 mi SW 28.8 mph 41.4 mph N/A   Clear
1:35 PM 66.2 °F - 19.4 °F 17% 29.80 in 9.0 mi SW 28.8 mph 46.0 mph N/A   Clear
1:55 PM 66.2 °F - 17.6 °F 15% 29.80 in 10.0 mi SW 25.3 mph 41.4 mph N/A   Clear
2:15 PM 66.2 °F - 17.6 °F 15% 29.79 in 8.0 mi SW 31.1 mph 42.6 mph N/A   Clear
2:35 PM 69.8 °F - 17.6 °F 14% 29.78 in 10.0 mi SSW 25.3 mph 39.1 mph N/A   Clear
2:55 PM 69.8 °F - 19.4 °F 15% 29.77 in 9.0 mi SSW 29.9 mph 39.1 mph N/A   Clear
3:15 PM 69.8 °F - 17.6 °F 14% 29.76 in 9.0 mi SW 32.2 mph 44.9 mph N/A   Partly Cloudy
3:35 PM 69.8 °F - 17.6 °F 14% 29.75 in 8.0 mi SSW 31.1 mph 38.0 mph N/A   Partly Cloudy
3:55 PM 68.0 °F - 17.6 °F 15% 29.73 in 10.0 mi SW 29.9 mph 40.3 mph N/A   Mostly Cloudy
4:15 PM 68.0 °F - 17.6 °F 15% 29.73 in 10.0 mi SW 28.8 mph 42.6 mph N/A   Mostly Cloudy
4:35 PM 69.8 °F - 15.8 °F 13% 29.71 in 10.0 mi SSW 29.9 mph 40.3 mph N/A   Partly Cloudy
4:55 PM 68.0 °F - 14.0 °F 12% 29.71 in 9.0 mi SSW 27.6 mph 42.6 mph N/A   Clear
5:15 PM 68.0 °F - 14.0 °F 12% 29.70 in 7.0 mi SW 33.4 mph 44.9 mph N/A   Clear
5:35 PM 69.8 °F - 12.2 °F 11% 29.70 in 10.0 mi SSW 34.5 mph 41.4 mph N/A   Clear
5:55 PM 66.2 °F - 12.2 °F 12% 29.71 in 10.0 mi SW 33.4 mph 39.1 mph N/A   Clear
6:15 PM 66.2 °F - 12.2 °F 12% 29.71 in 10.0 mi SW 36.8 mph 44.9 mph N/A   Clear
6:35 PM 66.2 °F - 10.4 °F 11% 29.73 in 10.0 mi SW 32.2 mph 40.3 mph N/A   Clear
6:55 PM 66.2 °F - 10.4 °F 11% 29.73 in 10.0 mi SW 26.5 mph 39.1 mph N/A   Clear
7:15 PM 66.2 °F - 10.4 °F 11% 29.74 in 10.0 mi SW 28.8 mph 35.7 mph N/A   Clear
7:35 PM 64.4 °F - 10.4 °F 12% 29.75 in 10.0 mi SW 25.3 mph 33.4 mph N/A   Clear
7:55 PM 64.4 °F - 8.6 °F 11% 29.75 in 10.0 mi SSW 24.2 mph 29.9 mph N/A   Clear
8:15 PM 64.4 °F - 10.4 °F 12% 29.77 in 10.0 mi SW 21.9 mph 31.1 mph N/A   Partly Cloudy
8:35 PM 62.6 °F - 8.6 °F 12% 29.78 in 10.0 mi SW 18.4 mph 25.3 mph N/A   Partly Cloudy
8:55 PM 62.6 °F - 10.4 °F 13% 29.78 in 10.0 mi SW 24.2 mph 27.6 mph N/A   Clear
9:15 PM 62.6 °F - 8.6 °F 12% 29.79 in 10.0 mi SW 23.0 mph 33.4 mph N/A   Clear
9:35 PM 60.8 °F - 8.6 °F 13% 29.80 in 10.0 mi SSW 16.1 mph 24.2 mph N/A   Clear
9:55 PM 59.0 °F - 8.6 °F 14% 29.81 in 10.0 mi SSW 16.1 mph - N/A   Clear
10:15 PM 57.2 °F - 8.6 °F 14% 29.82 in 10.0 mi SW 12.7 mph - N/A   Clear
10:35 PM 53.6 °F - 6.8 °F 15% 29.83 in 10.0 mi West 8.1 mph - N/A   Clear
10:55 PM 53.6 °F - 6.8 °F 15% 29.83 in 10.0 mi West 3.5 mph - N/A   Clear
11:15 PM 50.0 °F - 3.2 °F 15% 29.83 in 10.0 mi SSW 6.9 mph - N/A   Clear
11:35 PM 48.2 °F - 5.0 °F 17% 29.83 in 10.0 mi SSW 8.1 mph - N/A   Clear
11:55 PM 48.2 °F - 5.0 °F 17% 29.83 in 10.0 mi West 6.9 mph - N/A   Clear